Location: Angola by the Bay
(38.6709°N, 75.1746°W)
Time: 06:52:11
(UTC+00:00)

DIWATA 2B (PO-101) - Pass Details

Date: 05 December 2024
Orbit: 569 x 582 km, 98.1° (Epoch: 18 January)

Event Time Altitude Azimuth Distance (km) Brightness Sun altitude
Rises 22:18:40 0° 6° (N) 2,792 ? -7.8°
Reaches altitude 10° 22:20:53 10° 1° (N) 1,887 ? -8.2°
Maximum altitude 22:24:49 48° 287° (WNW) 751 ? -8.9°
Drops below altitude 10° 22:28:42 10° 212° (SSW) 1,866 ? -9.6°
Sets 22:30:53 0° 207° (SSW) 2,758 ? -10.0°
